| time (UTC) | temp C | wind direction | speed KPH | gust KPH | rain 1hr cm | rain 24hr cm | rain mn cm | humidity % | barometer mb |
| 20260508035630 | 15 | 237 | 0.0 | 1.6 | 0.00 | 0.00 | 0.00 | 64 | 1011.1 |
| 20260508035127 | 15 | 278 | 0.0 | 1.6 | 0.00 | 0.00 | 0.00 | 64 | 1011.0 |
| 20260508034624 | 15 | 278 | 1.6 | 1.6 | 0.00 | 0.00 | 0.00 | 64 | 1011.1 |
| 20260508034121 | 15 | 211 | 0.0 | 0.0 | 0.00 | 0.00 | 0.00 | 64 | 1011.0 |
| 20260508033618 | 15 | 261 | 3.2 | 4.8 | 0.00 | 0.00 | 0.00 | 65 | 1011.2 |
| 20260508033117 | 15 | 318 | 1.6 | 3.2 | 0.00 | 0.00 | 0.00 | 64 | 1011.0 |
| 20260508032613 | 15 | 221 | 0.0 | 1.6 | 0.00 | 0.00 | 0.00 | 64 | 1011.1 |
| 20260508032110 | 15 | 283 | 0.0 | 0.0 | 0.00 | 0.00 | 0.00 | 64 | 1011.0 |
| 20260508031608 | 16 | 259 | 0.0 | 1.6 | 0.00 | 0.00 | 0.00 | 63 | 1010.9 |
| 20260508031103 | 15 | 212 | 1.6 | 1.6 | 0.00 | 0.00 | 0.00 | 63 | 1011.0 |
| 20260508030600 | 15 | 241 | 4.8 | 9.7 | 0.00 | 0.00 | 0.00 | 63 | 1010.9 |
| 20260508030058 | 15 | 219 | 0.0 | 0.0 | 0.00 | 0.00 | 0.00 | 62 | 1011.0 |
| 20260508025554 | 16 | 197 | 1.6 | 1.6 | 0.00 | 0.00 | 0.00 | 64 | 1010.8 |
| 20260508025051 | 16 | 267 | 0.0 | 0.0 | 0.00 | 0.00 | 0.00 | 62 | 1010.6 |
| 20260508024547 | 16 | 242 | 0.0 | 1.6 | 0.00 | 0.00 | 0.00 | 61 | 1011.0 |
| 20260508024044 | 16 | 293 | 0.0 | 0.0 | 0.00 | 0.00 | 0.00 | 60 | 1010.4 |
| 20260508023540 | 16 | 270 | 0.0 | 1.6 | 0.00 | 0.00 | 0.00 | 60 | 1010.6 |
| 20260508023038 | 16 | 230 | 0.0 | 0.0 | 0.00 | 0.00 | 0.00 | 59 | 1010.5 |
| 20260508022534 | 16 | 271 | 1.6 | 1.6 | 0.00 | 0.00 | 0.00 | 59 | 1010.3 |
| 20260508022031 | 16 | 338 | 0.0 | 1.6 | 0.00 | 0.00 | 0.00 | 58 | 1010.3 |
| 20260508021527 | 16 | 258 | 0.0 | 0.0 | 0.00 | 0.00 | 0.00 | 57 | 1010.3 |
| 20260508021022 | 16 | 51 | 0.0 | 0.0 | 0.00 | 0.00 | 0.00 | 57 | 1010.2 |
| 20260508020521 | 16 | 256 | 0.0 | 0.0 | 0.00 | 0.00 | 0.00 | 57 | 1010.1 |
| 20260508020018 | 16 | 323 | 1.6 | 1.6 | 0.00 | 0.00 | 0.00 | 56 | 1010.3 |
| 20260508015515 | 17 | 233 | 0.0 | 0.0 | 0.00 | 0.00 | 0.00 | 56 | 1010.1 |
| 20260508015012 | 17 | 220 | 0.0 | 0.0 | 0.00 | 0.00 | 0.00 | 55 | 1010.0 |
| 20260508014508 | 17 | 229 | 0.0 | 0.0 | 0.00 | 0.00 | 0.00 | 54 | 1010.1 |
| 20260508014005 | 17 | 300 | 1.6 | 1.6 | 0.00 | 0.00 | 0.00 | 53 | 1009.9 |
| 20260508013501 | 17 | 294 | 1.6 | 3.2 | 0.00 | 0.00 | 0.00 | 53 | 1009.8 |
| 20260508012958 | 17 | 77 | 1.6 | 3.2 | 0.00 | 0.00 | 0.00 | 54 | 1009.9 |
| 20260508012455 | 17 | 342 | 0.0 | 0.0 | 0.00 | 0.00 | 0.00 | 55 | 1009.9 |
| 20260508011953 | 17 | 259 | 0.0 | 0.0 | 0.00 | 0.00 | 0.00 | 54 | 1010.1 |
| 20260508011451 | 18 | 248 | 0.0 | 0.0 | 0.00 | 0.00 | 0.00 | 54 | 1009.7 |
| 20260508010948 | 18 | 259 | 0.0 | 0.0 | 0.00 | 0.00 | 0.00 | 54 | 1009.9 |
| 20260508010445 | 18 | 195 | 0.0 | 1.6 | 0.00 | 0.00 | 0.00 | 53 | 1010.0 |
| 20260508005942 | 18 | 227 | 1.6 | 3.2 | 0.00 | 0.00 | 0.00 | 53 | 1009.7 |
| 20260508005438 | 18 | 231 | 1.6 | 1.6 | 0.00 | 0.00 | 0.00 | 54 | 1009.7 |
| 20260508004935 | 18 | 217 | 0.0 | 0.0 | 0.00 | 0.00 | 0.00 | 52 | 1009.7 |
| 20260508004431 | 19 | 266 | 0.0 | 1.6 | 0.00 | 0.00 | 0.00 | 52 | 1009.8 |
| 20260508003928 | 19 | 234 | 0.0 | 0.0 | 0.00 | 0.00 | 0.00 | 52 | 1009.9 |
| 20260508003425 | 19 | 235 | 0.0 | 1.6 | 0.00 | 0.00 | 0.00 | 51 | 1009.8 |
| 20260508002922 | 19 | 185 | 3.2 | 4.8 | 0.00 | 0.00 | 0.00 | 51 | 1009.9 |
| 20260508002419 | 20 | 230 | 0.0 | 0.0 | 0.00 | 0.00 | 0.00 | 52 | 1009.8 |
| 20260508001914 | 20 | 194 | 0.0 | 0.0 | 0.00 | 0.00 | 0.00 | 51 | 1009.9 |
| 20260508001405 | 20 | 238 | 0.0 | 0.0 | 0.00 | 0.00 | 0.00 | 49 | 1009.7 |
| 20260508000902 | 20 | 299 | 3.2 | 3.2 | 0.00 | 0.00 | 0.00 | 48 | 1009.9 |
| 20260508000358 | 20 | 272 | 0.0 | 0.0 | 0.00 | 0.00 | 0.00 | 49 | 1010.0 |
| 20260507235854 | 20 | 208 | 1.6 | 3.2 | 0.00 | 0.00 | 0.00 | 48 | 1010.0 |
| 20260507235352 | 20 | 241 | 1.6 | 3.2 | 0.00 | 0.00 | 0.00 | 47 | 1010.0 |
| 20260507234849 | 20 | 182 | 0.0 | 0.0 | 0.00 | 0.00 | 0.00 | 47 | 1009.9 |
| 20260507234346 | 20 | 26 | 1.6 | 1.6 | 0.00 | 0.00 | 0.00 | 46 | 1010.0 |
| 20260507233842 | 20 | 250 | 4.8 | 9.7 | 0.00 | 0.00 | 0.00 | 46 | 1010.2 |
| 20260507233340 | 20 | 21 | 0.0 | 0.0 | 0.00 | 0.00 | 0.00 | 47 | 1010.2 |
| 20260507232838 | 20 | 150 | 1.6 | 1.6 | 0.00 | 0.00 | 0.00 | 45 | 1010.3 |
| 20260507232334 | 20 | 249 | 0.0 | 0.0 | 0.00 | 0.00 | 0.00 | 45 | 1010.4 |
| 20260507231831 | 20 | 280 | 4.8 | 4.8 | 0.00 | 0.00 | 0.00 | 44 | 1010.3 |
| 20260507231322 | 21 | 204 | 1.6 | 4.8 | 0.00 | 0.00 | 0.00 | 42 | 1010.5 |
| 20260507230818 | 21 | 264 | 1.6 | 1.6 | 0.00 | 0.00 | 0.00 | 45 | 1010.5 |
| 20260507230316 | 21 | 292 | 0.0 | 0.0 | 0.00 | 0.00 | 0.00 | 44 | 1010.4 |
| 20260507225816 | 21 | 329 | 4.8 | 9.7 | 0.00 | 0.00 | 0.00 | 44 | 1010.6 |
| 20260507225312 | 21 | 206 | 6.4 | 11.3 | 0.00 | 0.00 | 0.00 | 42 | 1010.8 |
| 20260507224808 | 21 | 244 | 1.6 | 1.6 | 0.00 | 0.00 | 0.00 | 43 | 1010.5 |
| 20260507224305 | 21 | 219 | 0.0 | 1.6 | 0.00 | 0.00 | 0.00 | 44 | 1010.6 |
| 20260507223801 | 22 | 214 | 0.0 | 1.6 | 0.00 | 0.00 | 0.00 | 44 | 1010.5 |
| 20260507223257 | 21 | 209 | 1.6 | 1.6 | 0.00 | 0.00 | 0.00 | 44 | 1010.9 |
| 20260507222754 | 21 | 220 | 0.0 | 1.6 | 0.00 | 0.00 | 0.00 | 45 | 1010.6 |
| 20260507222250 | 21 | 265 | 1.6 | 3.2 | 0.00 | 0.00 | 0.00 | 45 | 1011.1 |
| 20260507221748 | 21 | 282 | 1.6 | 3.2 | 0.00 | 0.00 | 0.00 | 43 | 1010.9 |
| 20260507221244 | 21 | 156 | 3.2 | 4.8 | 0.00 | 0.00 | 0.00 | 43 | 1010.6 |
| 20260507220740 | 21 | 267 | 1.6 | 3.2 | 0.00 | 0.00 | 0.00 | 46 | 1010.8 |
| 20260507220239 | 21 | 27 | 4.8 | 8.0 | 0.00 | 0.00 | 0.00 | 42 | 1010.8 |
| 20260507215734 | 21 | 122 | 6.4 | 11.3 | 0.00 | 0.00 | 0.00 | 44 | 1010.8 |
| 20260507215232 | 21 | 319 | 3.2 | 3.2 | 0.00 | 0.00 | 0.00 | 43 | 1010.9 |
| 20260507214729 | 22 | 102 | 1.6 | 3.2 | 0.00 | 0.00 | 0.00 | 42 | 1010.9 |
| 20260507214227 | 21 | 282 | 6.4 | 9.7 | 0.00 | 0.00 | 0.00 | 42 | 1011.2 |
| 20260507213722 | 21 | 334 | 1.6 | 3.2 | 0.00 | 0.00 | 0.00 | 45 | 1011.0 |
| 20260507213219 | 21 | 221 | 4.8 | 4.8 | 0.00 | 0.00 | 0.00 | 44 | 1011.0 |
| 20260507212715 | 21 | 216 | 0.0 | 3.2 | 0.00 | 0.00 | 0.00 | 46 | 1011.1 |
| 20260507212212 | 21 | 272 | 3.2 | 3.2 | 0.00 | 0.00 | 0.00 | 45 | 1011.1 |
| 20260507211709 | 21 | 289 | 3.2 | 3.2 | 0.00 | 0.00 | 0.00 | 46 | 1011.2 |
| 20260507211204 | 21 | 216 | 1.6 | 1.6 | 0.00 | 0.00 | 0.00 | 46 | 1011.2 |
| 20260507210702 | 21 | 230 | 3.2 | 4.8 | 0.00 | 0.00 | 0.00 | 45 | 1011.5 |
| 20260507210159 | 21 | 211 | 6.4 | 9.7 | 0.00 | 0.00 | 0.00 | 44 | 1011.4 |
| 20260507205655 | 21 | 272 | 4.8 | 12.9 | 0.00 | 0.00 | 0.00 | 45 | 1011.6 |
| 20260507205152 | 21 | 243 | 4.8 | 4.8 | 0.00 | 0.00 | 0.00 | 47 | 1011.7 |
| 20260507204648 | 20 | 209 | 3.2 | 4.8 | 0.00 | 0.00 | 0.00 | 48 | 1011.7 |
| 20260507204146 | 20 | 190 | 8.0 | 12.9 | 0.00 | 0.00 | 0.00 | 46 | 1011.9 |
| 20260507203644 | 21 | 235 | 1.6 | 1.6 | 0.00 | 0.00 | 0.00 | 49 | 1012.0 |
| 20260507203141 | 21 | 7 | 6.4 | 12.9 | 0.00 | 0.00 | 0.00 | 48 | 1012.2 |
| 20260507202636 | 21 | 166 | 4.8 | 8.0 | 0.00 | 0.00 | 0.00 | 49 | 1012.1 |
| 20260507202133 | 21 | 234 | 1.6 | 3.2 | 0.00 | 0.00 | 0.00 | 48 | 1012.1 |
| 20260507201628 | 21 | 216 | 4.8 | 4.8 | 0.00 | 0.00 | 0.00 | 49 | 1012.3 |
| 20260507201125 | 21 | 43 | 4.8 | 4.8 | 0.00 | 0.00 | 0.00 | 50 | 1012.4 |
| 20260507200621 | 20 | 168 | 3.2 | 3.2 | 0.00 | 0.00 | 0.00 | 48 | 1012.6 |
| 20260507200117 | 20 | 231 | 3.2 | 4.8 | 0.00 | 0.00 | 0.00 | 50 | 1012.5 |
| 20260507195614 | 20 | 175 | 6.4 | 8.0 | 0.00 | 0.00 | 0.00 | 49 | 1012.5 |
| 20260507195112 | 20 | 318 | 4.8 | 9.7 | 0.00 | 0.00 | 0.00 | 48 | 1012.7 |
| 20260507194608 | 20 | 231 | 3.2 | 4.8 | 0.00 | 0.00 | 0.00 | 50 | 1012.7 |
| 20260507194103 | 20 | 280 | 6.4 | 9.7 | 0.00 | 0.00 | 0.00 | 49 | 1012.8 |
| 20260507193601 | 20 | 234 | 6.4 | 9.7 | 0.00 | 0.00 | 0.00 | 50 | 1012.8 |
| 20260507193058 | 20 | 332 | 4.8 | 8.0 | 0.00 | 0.00 | 0.00 | 48 | 1013.0 |
| 20260507192554 | 20 | 355 | 6.4 | 9.7 | 0.00 | 0.00 | 0.00 | 49 | 1013.0 |
| 20260507192051 | 20 | 152 | 6.4 | 16.1 | 0.00 | 0.00 | 0.00 | 50 | 1013.2 |
| 20260507191546 | 20 | 151 | 3.2 | 3.2 | 0.00 | 0.00 | 0.00 | 51 | 1013.3 |
| 20260507191044 | 20 | 275 | 4.8 | 8.0 | 0.00 | 0.00 | 0.00 | 50 | 1013.3 |
| 20260507190541 | 20 | 231 | 3.2 | 4.8 | 0.00 | 0.00 | 0.00 | 51 | 1013.2 |
| 20260507190040 | 20 | 318 | 6.4 | 8.0 | 0.00 | 0.00 | 0.00 | 49 | 1013.3 |
| 20260507185538 | 20 | 219 | 1.6 | 1.6 | 0.00 | 0.00 | 0.00 | 51 | 1013.4 |
| 20260507185034 | 20 | 174 | 4.8 | 9.7 | 0.00 | 0.00 | 0.00 | 52 | 1013.3 |
| 20260507184532 | 19 | 224 | 3.2 | 3.2 | 0.00 | 0.00 | 0.00 | 53 | 1013.4 |
| 20260507184030 | 19 | 202 | 6.4 | 9.7 | 0.00 | 0.00 | 0.00 | 53 | 1013.4 |
| 20260507183525 | 19 | 217 | 4.8 | 9.7 | 0.00 | 0.00 | 0.00 | 52 | 1013.4 |
| 20260507183023 | 19 | 267 | 9.7 | 20.9 | 0.00 | 0.00 | 0.00 | 53 | 1013.8 |
| 20260507182519 | 18 | 271 | 0.0 | 0.0 | 0.00 | 0.00 | 0.00 | 54 | 1013.8 |
| 20260507182015 | 18 | 127 | 3.2 | 4.8 | 0.00 | 0.00 | 0.00 | 53 | 1013.9 |
| 20260507181512 | 18 | 282 | 6.4 | 9.7 | 0.00 | 0.00 | 0.00 | 53 | 1013.9 |
| 20260507181008 | 18 | 274 | 6.4 | 9.7 | 0.00 | 0.00 | 0.00 | 55 | 1014.1 |
| 20260507180504 | 18 | 115 | 3.2 | 4.8 | 0.00 | 0.00 | 0.00 | 54 | 1014.0 |
| 20260507180001 | 19 | 261 | 6.4 | 9.7 | 0.00 | 0.00 | 0.00 | 51 | 1014.1 |
| 20260507175458 | 18 | 138 | 4.8 | 8.0 | 0.00 | 0.00 | 0.00 | 53 | 1014.2 |
| 20260507174955 | 19 | 199 | 9.7 | 12.9 | 0.00 | 0.00 | 0.00 | 52 | 1014.5 |
| 20260507174452 | 18 | 297 | 6.4 | 9.7 | 0.00 | 0.00 | 0.00 | 52 | 1014.3 |
| 20260507173950 | 18 | 284 | 3.2 | 4.8 | 0.00 | 0.00 | 0.00 | 54 | 1014.6 |
| 20260507173447 | 18 | 262 | 3.2 | 8.0 | 0.00 | 0.00 | 0.00 | 53 | 1014.6 |
| 20260507172943 | 17 | 340 | 9.7 | 14.5 | 0.00 | 0.00 | 0.00 | 54 | 1014.5 |
| 20260507172440 | 18 | 130 | 3.2 | 8.0 | 0.00 | 0.00 | 0.00 | 52 | 1014.8 |
| 20260507171937 | 18 | 297 | 4.8 | 8.0 | 0.00 | 0.00 | 0.00 | 54 | 1014.9 |
| 20260507171432 | 19 | 257 | 1.6 | 4.8 | 0.00 | 0.00 | 0.00 | 55 | 1014.9 |
| 20260507170930 | 18 | 253 | 1.6 | 3.2 | 0.00 | 0.00 | 0.00 | 55 | 1014.9 |
| 20260507170426 | 17 | 230 | 1.6 | 4.8 | 0.00 | 0.00 | 0.00 | 55 | 1014.9 |
| 20260507165923 | 17 | 270 | 6.4 | 9.7 | 0.00 | 0.00 | 0.00 | 56 | 1015.1 |
| 20260507165419 | 17 | 179 | 4.8 | 12.9 | 0.00 | 0.00 | 0.00 | 53 | 1015.1 |
| 20260507164914 | 17 | 285 | 6.4 | 9.7 | 0.00 | 0.00 | 0.00 | 54 | 1015.3 |
| 20260507164412 | 17 | 326 | 3.2 | 4.8 | 0.00 | 0.00 | 0.00 | 53 | 1015.1 |
| 20260507163909 | 18 | 305 | 9.7 | 12.9 | 0.00 | 0.00 | 0.00 | 53 | 1015.4 |
| 20260507163407 | 17 | 204 | 3.2 | 8.0 | 0.00 | 0.00 | 0.00 | 55 | 1015.3 |
| 20260507162903 | 17 | 317 | 11.3 | 17.7 | 0.00 | 0.00 | 0.00 | 53 | 1015.5 |
| 20260507162358 | 17 | 244 | 6.4 | 14.5 | 0.00 | 0.00 | 0.00 | 56 | 1015.4 |
| 20260507161856 | 18 | 235 | 4.8 | 12.9 | 0.00 | 0.00 | 0.00 | 55 | 1015.9 |
| 20260507161352 | 17 | 184 | 1.6 | 1.6 | 0.00 | 0.00 | 0.00 | 58 | 1015.6 |
| 20260507160849 | 17 | 240 | 3.2 | 4.8 | 0.00 | 0.00 | 0.00 | 58 | 1015.7 |
| 20260507160344 | 17 | 236 | 11.3 | 16.1 | 0.00 | 0.00 | 0.00 | 58 | 1015.8 |
| 20260507155841 | 17 | 199 | 1.6 | 1.6 | 0.00 | 0.00 | 0.00 | 58 | 1015.7 |
| 20260507155336 | 17 | 279 | 4.8 | 4.8 | 0.00 | 0.00 | 0.00 | 55 | 1015.8 |
| 20260507154833 | 17 | 153 | 1.6 | 3.2 | 0.00 | 0.00 | 0.00 | 56 | 1015.7 |
| 20260507154331 | 16 | 79 | 1.6 | 1.6 | 0.00 | 0.00 | 0.00 | 60 | 1015.7 |
| 20260507153828 | 16 | 119 | 1.6 | 1.6 | 0.00 | 0.00 | 0.00 | 60 | 1015.9 |
| 20260507153324 | 16 | 235 | 6.4 | 11.3 | 0.00 | 0.00 | 0.00 | 58 | 1015.9 |
| 20260507152821 | 16 | 352 | 4.8 | 4.8 | 0.00 | 0.00 | 0.00 | 59 | 1015.8 |
| 20260507152317 | 16 | 299 | 4.8 | 4.8 | 0.00 | 0.00 | 0.00 | 59 | 1016.0 |
| 20260507151813 | 16 | 94 | 0.0 | 1.6 | 0.00 | 0.00 | 0.00 | 61 | 1016.1 |
| 20260507151309 | 16 | 259 | 8.0 | 12.9 | 0.00 | 0.00 | 0.00 | 60 | 1016.0 |
| 20260507150807 | 16 | 277 | 4.8 | 11.3 | 0.00 | 0.00 | 0.00 | 62 | 1016.1 |
| 20260507150303 | 15 | 288 | 8.0 | 12.9 | 0.00 | 0.00 | 0.00 | 62 | 1016.2 |
| 20260507145759 | 15 | 171 | 3.2 | 3.2 | 0.00 | 0.00 | 0.00 | 64 | 1016.3 |
| 20260507145256 | 15 | 186 | 3.2 | 4.8 | 0.00 | 0.00 | 0.00 | 63 | 1016.4 |
| 20260507144753 | 15 | 271 | 3.2 | 3.2 | 0.00 | 0.00 | 0.00 | 64 | 1016.4 |
| 20260507144250 | 15 | 150 | 1.6 | 3.2 | 0.00 | 0.00 | 0.00 | 65 | 1016.4 |
| 20260507143746 | 14 | 276 | 4.8 | 9.7 | 0.00 | 0.00 | 0.00 | 66 | 1016.4 |
| 20260507143244 | 13 | 276 | 0.0 | 3.2 | 0.00 | 0.00 | 0.00 | 66 | 1016.5 |
| 20260507142740 | 13 | 278 | 0.0 | 1.6 | 0.00 | 0.00 | 0.00 | 67 | 1016.4 |
| 20260507142237 | 13 | 342 | 3.2 | 4.8 | 0.00 | 0.00 | 0.00 | 66 | 1016.5 |
| 20260507141733 | 13 | 318 | 1.6 | 1.6 | 0.00 | 0.00 | 0.00 | 69 | 1016.8 |
| 20260507141230 | 13 | 254 | 1.6 | 1.6 | 0.00 | 0.00 | 0.00 | 70 | 1016.5 |
| 20260507140726 | 12 | 205 | 0.0 | 1.6 | 0.00 | 0.00 | 0.00 | 71 | 1016.5 |
| 20260507140224 | 12 | 208 | 1.6 | 3.2 | 0.00 | 0.00 | 0.00 | 72 | 1016.7 |
| 20260507135721 | 11 | 216 | 1.6 | 3.2 | 0.00 | 0.00 | 0.00 | 74 | 1016.8 |
| 20260507135218 | 11 | 272 | 4.8 | 8.0 | 0.00 | 0.00 | 0.00 | 75 | 1016.9 |
| 20260507134714 | 11 | 243 | 3.2 | 8.0 | 0.00 | 0.00 | 0.00 | 76 | 1016.8 |
| 20260507134211 | 10 | 189 | 6.4 | 12.9 | 0.00 | 0.00 | 0.00 | 78 | 1016.5 |
| 20260507133707 | 10 | 213 | 1.6 | 3.2 | 0.00 | 0.00 | 0.00 | 81 | 1016.8 |
| 20260507133204 | 10 | 270 | 3.2 | 8.0 | 0.00 | 0.00 | 0.00 | 82 | 1016.5 |
| 20260507132701 | 10 | 255 | 1.6 | 3.2 | 0.00 | 0.00 | 0.00 | 84 | 1016.7 |
| 20260507132157 | 9 | 203 | 0.0 | 1.6 | 0.00 | 0.00 | 0.00 | 84 | 1016.3 |
| 20260507131654 | 9 | 286 | 1.6 | 3.2 | 0.00 | 0.00 | 0.00 | 84 | 1016.8 |
| 20260507131152 | 8 | 227 | 1.6 | 3.2 | 0.00 | 0.00 | 0.00 | 85 | 1016.8 |
| 20260507130648 | 8 | 217 | 0.0 | 1.6 | 0.00 | 0.00 | 0.00 | 85 | 1017.0 |
| 20260507130146 | 8 | 257 | 1.6 | 1.6 | 0.00 | 0.00 | 0.00 | 87 | 1016.8 |
| 20260507125645 | 8 | 232 | 1.6 | 1.6 | 0.00 | 0.00 | 0.00 | 88 | 1017.0 |
| 20260507125142 | 8 | 224 | 1.6 | 1.6 | 0.00 | 0.00 | 0.00 | 88 | 1016.9 |
| 20260507124638 | 7 | 240 | 0.0 | 0.0 | 0.00 | 0.00 | 0.00 | 88 | 1016.5 |
| 20260507124136 | 7 | 165 | 0.0 | 0.0 | 0.00 | 0.00 | 0.00 | 88 | 1016.9 |
| 20260507123634 | 7 | 283 | 0.0 | 1.6 | 0.00 | 0.00 | 0.00 | 89 | 1017.0 |
| 20260507123131 | 7 | 212 | 0.0 | 0.0 | 0.00 | 0.00 | 0.00 | 89 | 1016.9 |
| 20260507122626 | 7 | 223 | 0.0 | 0.0 | 0.00 | 0.00 | 0.00 | 89 | 1016.8 |
| 20260507122122 | 6 | 225 | 0.0 | 1.6 | 0.00 | 0.00 | 0.00 | 90 | 1016.9 |
| 20260507121618 | 6 | 224 | 0.0 | 1.6 | 0.00 | 0.00 | 0.00 | 90 | 1017.0 |
| 20260507121114 | 6 | 208 | 1.6 | 1.6 | 0.00 | 0.00 | 0.00 | 91 | 1017.0 |
| 20260507120610 | 6 | 213 | 0.0 | 0.0 | 0.00 | 0.00 | 0.00 | 91 | 1016.7 |
| 20260507120107 | 6 | 227 | 0.0 | 0.0 | 0.00 | 0.00 | 0.00 | 92 | 1017.0 |
| 20260507115603 | 5 | 311 | 3.2 | 3.2 | 0.00 | 0.00 | 0.00 | 92 | 1016.8 |
| 20260507115059 | 5 | 222 | 0.0 | 0.0 | 0.00 | 0.00 | 0.00 | 92 | 1016.9 |
| 20260507114555 | 5 | 229 | 0.0 | 0.0 | 0.00 | 0.00 | 0.00 | 93 | 1016.8 |
| 20260507114052 | 5 | 228 | 0.0 | 0.0 | 0.00 | 0.00 | 0.00 | 92 | 1016.9 |
| 20260507113549 | 5 | 206 | 0.0 | 0.0 | 0.00 | 0.00 | 0.00 | 92 | 1016.9 |
| 20260507113047 | 5 | 220 | 0.0 | 0.0 | 0.00 | 0.00 | 0.00 | 92 | 1016.9 |
| 20260507112544 | 5 | 247 | 0.0 | 0.0 | 0.00 | 0.00 | 0.00 | 92 | 1016.8 |
| 20260507112041 | 5 | 223 | 0.0 | 0.0 | 0.00 | 0.00 | 0.00 | 93 | 1016.7 |
| 20260507111538 | 5 | 225 | 0.0 | 0.0 | 0.00 | 0.00 | 0.00 | 93 | 1016.7 |
| 20260507111035 | 5 | 288 | 0.0 | 0.0 | 0.00 | 0.00 | 0.00 | 93 | 1016.7 |
| 20260507110531 | 5 | 263 | 0.0 | 0.0 | 0.00 | 0.00 | 0.00 | 93 | 1016.7 |
| 20260507110028 | 5 | 286 | 0.0 | 0.0 | 0.00 | 0.00 | 0.00 | 93 | 1016.8 |
| 20260507105525 | 5 | 236 | 0.0 | 0.0 | 0.00 | 0.00 | 0.00 | 93 | 1016.5 |
| 20260507105021 | 5 | 236 | 0.0 | 0.0 | 0.00 | 0.00 | 0.00 | 93 | 1016.8 |
| 20260507104518 | 5 | 236 | 0.0 | 0.0 | 0.00 | 0.00 | 0.00 | 93 | 1016.3 |
| 20260507104015 | 5 | 236 | 0.0 | 0.0 | 0.00 | 0.00 | 0.00 | 93 | 1016.4 |
| 20260507103511 | 5 | 189 | 0.0 | 0.0 | 0.00 | 0.00 | 0.00 | 93 | 1016.4 |
| 20260507103007 | 5 | 189 | 0.0 | 0.0 | 0.00 | 0.00 | 0.00 | 92 | 1016.7 |
| 20260507102504 | 5 | 189 | 0.0 | 0.0 | 0.00 | 0.00 | 0.00 | 92 | 1016.7 |
| 20260507102000 | 5 | 206 | 0.0 | 0.0 | 0.00 | 0.00 | 0.00 | 91 | 1016.5 |
| 20260507101455 | 5 | 201 | 0.0 | 0.0 | 0.00 | 0.00 | 0.00 | 91 | 1016.5 |
| 20260507100952 | 5 | 230 | 0.0 | 0.0 | 0.00 | 0.00 | 0.00 | 90 | 1016.9 |
| 20260507100450 | 6 | 225 | 0.0 | 0.0 | 0.00 | 0.00 | 0.00 | 89 | 1016.9 |
| 20260507095948 | 5 | 216 | 0.0 | 0.0 | 0.00 | 0.00 | 0.00 | 90 | 1016.9 |
| 20260507095445 | 5 | 230 | 0.0 | 0.0 | 0.00 | 0.00 | 0.00 | 90 | 1017.0 |
| 20260507094942 | 5 | 203 | 0.0 | 0.0 | 0.00 | 0.00 | 0.00 | 89 | 1016.7 |
| 20260507094438 | 5 | 240 | 0.0 | 0.0 | 0.00 | 0.00 | 0.00 | 89 | 1016.8 |
| 20260507093935 | 5 | 229 | 0.0 | 0.0 | 0.00 | 0.00 | 0.00 | 89 | 1016.9 |
| 20260507093433 | 5 | 244 | 0.0 | 0.0 | 0.00 | 0.00 | 0.00 | 88 | 1016.7 |
| 20260507092931 | 5 | 262 | 0.0 | 0.0 | 0.00 | 0.00 | 0.00 | 89 | 1017.0 |
| 20260507092427 | 5 | 221 | 0.0 | 0.0 | 0.00 | 0.00 | 0.00 | 88 | 1017.2 |
| 20260507091924 | 5 | 210 | 0.0 | 0.0 | 0.00 | 0.00 | 0.00 | 88 | 1017.0 |
| 20260507091420 | 5 | 224 | 0.0 | 0.0 | 0.00 | 0.00 | 0.00 | 88 | 1017.3 |
| 20260507090916 | 5 | 223 | 0.0 | 0.0 | 0.00 | 0.00 | 0.00 | 88 | 1017.0 |
| 20260507090412 | 5 | 223 | 0.0 | 0.0 | 0.00 | 0.00 | 0.00 | 88 | 1017.2 |
| 20260507085909 | 5 | 212 | 0.0 | 0.0 | 0.00 | 0.00 | 0.00 | 87 | 1017.1 |
| 20260507085406 | 5 | 212 | 0.0 | 0.0 | 0.00 | 0.00 | 0.00 | 87 | 1017.3 |
| 20260507084903 | 5 | 210 | 0.0 | 0.0 | 0.00 | 0.00 | 0.00 | 87 | 1017.1 |
| 20260507084400 | 6 | 211 | 0.0 | 0.0 | 0.00 | 0.00 | 0.00 | 87 | 1017.4 |
| 20260507083857 | 6 | 207 | 0.0 | 0.0 | 0.00 | 0.00 | 0.00 | 86 | 1017.4 |
| 20260507083353 | 6 | 203 | 0.0 | 0.0 | 0.00 | 0.00 | 0.00 | 86 | 1017.2 |
| 20260507082850 | 5 | 222 | 0.0 | 1.6 | 0.00 | 0.00 | 0.00 | 86 | 1017.4 |
| 20260507082345 | 5 | 220 | 0.0 | 0.0 | 0.00 | 0.00 | 0.00 | 86 | 1017.2 |
| 20260507081843 | 5 | 217 | 0.0 | 0.0 | 0.00 | 0.00 | 0.00 | 86 | 1017.4 |
| 20260507081339 | 6 | 217 | 0.0 | 0.0 | 0.00 | 0.00 | 0.00 | 85 | 1017.2 |
| 20260507080836 | 5 | 217 | 0.0 | 0.0 | 0.00 | 0.00 | 0.00 | 84 | 1017.4 |
| 20260507080332 | 5 | 217 | 0.0 | 0.0 | 0.00 | 0.00 | 0.00 | 84 | 1017.4 |
| 20260507075828 | 6 | 217 | 0.0 | 0.0 | 0.00 | 0.00 | 0.00 | 83 | 1017.4 |
| 20260507075324 | 5 | 217 | 0.0 | 0.0 | 0.00 | 0.00 | 0.00 | 83 | 1017.2 |
| 20260507074820 | 6 | 217 | 0.0 | 0.0 | 0.00 | 0.00 | 0.00 | 82 | 1017.4 |
| 20260507074318 | 6 | 217 | 0.0 | 0.0 | 0.00 | 0.00 | 0.00 | 82 | 1017.3 |
| 20260507073815 | 6 | 217 | 0.0 | 0.0 | 0.00 | 0.00 | 0.00 | 82 | 1017.4 |
| 20260507073312 | 6 | 217 | 0.0 | 0.0 | 0.00 | 0.00 | 0.00 | 81 | 1017.4 |
| 20260507072809 | 6 | 217 | 0.0 | 0.0 | 0.00 | 0.00 | 0.00 | 81 | 1017.3 |
| 20260507072308 | 6 | 217 | 0.0 | 0.0 | 0.00 | 0.00 | 0.00 | 80 | 1017.5 |
| 20260507071804 | 6 | 223 | 0.0 | 0.0 | 0.00 | 0.00 | 0.00 | 80 | 1017.6 |
| 20260507071300 | 6 | 223 | 0.0 | 0.0 | 0.00 | 0.00 | 0.00 | 79 | 1017.7 |
| 20260507070756 | 6 | 223 | 0.0 | 0.0 | 0.00 | 0.00 | 0.00 | 78 | 1017.6 |
| 20260507070254 | 7 | 223 | 0.0 | 0.0 | 0.00 | 0.00 | 0.00 | 78 | 1017.7 |
| 20260507065750 | 7 | 223 | 0.0 | 0.0 | 0.00 | 0.00 | 0.00 | 77 | 1017.8 |
| 20260507065247 | 7 | 223 | 0.0 | 0.0 | 0.00 | 0.00 | 0.00 | 76 | 1017.9 |
| 20260507064744 | 7 | 223 | 0.0 | 0.0 | 0.00 | 0.00 | 0.00 | 75 | 1017.7 |
| 20260507064243 | 7 | 215 | 0.0 | 0.0 | 0.00 | 0.00 | 0.00 | 74 | 1017.8 |
| 20260507063740 | 7 | 223 | 0.0 | 0.0 | 0.00 | 0.00 | 0.00 | 72 | 1017.8 |
| 20260507063237 | 8 | 220 | 0.0 | 0.0 | 0.00 | 0.00 | 0.00 | 71 | 1017.8 |
| 20260507062734 | 8 | 234 | 0.0 | 0.0 | 0.00 | 0.00 | 0.00 | 71 | 1018.0 |
| 20260507062231 | 8 | 233 | 0.0 | 0.0 | 0.00 | 0.00 | 0.00 | 69 | 1017.9 |
| 20260507061730 | 8 | 227 | 0.0 | 1.6 | 0.00 | 0.00 | 0.00 | 68 | 1018.0 |
| 20260507061227 | 8 | 233 | 0.0 | 0.0 | 0.00 | 0.00 | 0.00 | 68 | 1018.0 |
| 20260507060725 | 8 | 256 | 0.0 | 0.0 | 0.00 | 0.00 | 0.00 | 68 | 1018.0 |
| 20260507060221 | 8 | 255 | 0.0 | 0.0 | 0.00 | 0.00 | 0.00 | 69 | 1018.2 |
| 20260507055717 | 8 | 230 | 0.0 | 1.6 | 0.00 | 0.00 | 0.00 | 67 | 1018.2 |
| 20260507055213 | 9 | 217 | 0.0 | 1.6 | 0.00 | 0.00 | 0.00 | 67 | 1018.2 |
| 20260507054709 | 9 | 233 | 0.0 | 0.0 | 0.00 | 0.00 | 0.00 | 67 | 1018.4 |
| 20260507054206 | 9 | 236 | 0.0 | 0.0 | 0.00 | 0.00 | 0.00 | 66 | 1018.2 |
| 20260507053704 | 9 | 269 | 0.0 | 0.0 | 0.00 | 0.00 | 0.00 | 65 | 1018.1 |
| 20260507053202 | 9 | 264 | 0.0 | 1.6 | 0.00 | 0.00 | 0.00 | 66 | 1018.1 |
| 20260507052701 | 10 | 227 | 0.0 | 0.0 | 0.00 | 0.00 | 0.00 | 67 | 1018.3 |
| 20260507052156 | 9 | 224 | 1.6 | 1.6 | 0.00 | 0.00 | 0.00 | 65 | 1018.1 |
| 20260507051654 | 9 | 316 | 3.2 | 3.2 | 0.00 | 0.00 | 0.00 | 67 | 1018.3 |
| 20260507051150 | 9 | 228 | 0.0 | 0.0 | 0.00 | 0.00 | 0.00 | 68 | 1018.2 |
| 20260507050647 | 9 | 242 | 0.0 | 0.0 | 0.00 | 0.00 | 0.00 | 67 | 1018.2 |
| 20260507050144 | 9 | 239 | 0.0 | 0.0 | 0.00 | 0.00 | 0.00 | 69 | 1017.9 |
| 20260507045641 | 9 | 241 | 0.0 | 0.0 | 0.00 | 0.03 | 0.03 | 65 | 1018.1 |
| 20260507045137 | 9 | 225 | 0.0 | 0.0 | 0.00 | 0.03 | 0.03 | 68 | 1018.0 |
| 20260507044634 | 10 | 230 | 0.0 | 0.0 | 0.00 | 0.03 | 0.03 | 67 | 1018.1 |
| 20260507044131 | 9 | 269 | 1.6 | 1.6 | 0.00 | 0.03 | 0.03 | 65 | 1018.0 |
| 20260507043627 | 9 | 236 | 0.0 | 0.0 | 0.00 | 0.03 | 0.03 | 65 | 1018.1 |
| 20260507043124 | 10 | 242 | 0.0 | 0.0 | 0.00 | 0.03 | 0.03 | 64 | 1018.1 |
| 20260507042620 | 10 | 248 | 0.0 | 0.0 | 0.00 | 0.03 | 0.03 | 62 | 1018.2 |
| 20260507042116 | 10 | 224 | 0.0 | 0.0 | 0.00 | 0.03 | 0.03 | 65 | 1017.9 |
| 20260507041613 | 10 | 227 | 0.0 | 0.0 | 0.00 | 0.03 | 0.03 | 61 | 1018.2 |
| 20260507041110 | 10 | 230 | 0.0 | 1.6 | 0.00 | 0.03 | 0.03 | 61 | 1018.2 |
| 20260507040607 | 10 | 227 | 0.0 | 0.0 | 0.00 | 0.03 | 0.03 | 63 | 1018.1 |